Sanford, ME

6:47 PM EST on January 17, 2017 (GMT -0500)
Sanford Regional

Weather History for KSFM - September, 2013

Change the Weather History Date:

Sunday, September 29, 2013

  Actual Average Record
Temperature  
Mean Temperature 50 °F -  
Max Temperature 66 °F 63 °F 80 °F (2010)
Min Temperature 35 °F 41 °F 24 °F (2000)
Degree Days  
Heating Degree Days 14    
Moisture  
Dew Point 41 °F    
Average Humidity 77    
Maximum Humidity 100    
Minimum Humidity 45    
Precipitation  
Precipitation 0.00 in - - ()
Sea Level Pressure  
Sea Level Pressure 30.20 in    
Wind  
Wind Speed 1 mph (SSE)    
Max Wind Speed 7 mph    
Max Gust Speed -    
Averages and records for this station are not official NWS values.
T = Trace of Precipitation, MM = Missing Value Source: NWS Daily Summary

Daily Weather History Graph

Daily Weather History Graph

Search for Another Location

Airport or City:

Trip Planner

Search our weather history database for the weather conditions in past years. The results will help you decide how hot, cold, wet, or windy it might be!

Date:

Astronomy

Sep. 29, 2013 Rise Set
Actual Time 6:38 AM EDT 6:27 PM EDT
Civil Twilight 6:09 AM EDT 6:55 PM EDT
Nautical Twilight 5:36 AM EDT 7:28 PM EDT
Astronomical Twilight 5:02 AM EDT 8:02 PM EDT
Moon 1:08 AM EDT (9/29) 3:28 PM EDT (9/29)
Length of Visible Light 12h 45m
Length of Day
11h 48m
Waning Crescent, 27% of the Moon is Illuminated
Sep 29
Waning Crescent
Oct 4
New
Oct 11
First Quarter
Oct 18
Full
Oct 26
Last Quarter

Hourly Weather History & Observations

Time (EDT) Temp. Windchill Dew Point Humidity Pressure Visibility Wind Dir Wind Speed Gust Speed Precip Events Conditions
12:15 AM 42.8 °F - 37.4 °F 81% 30.27 in - Calm Calm - N/A   Clear
12:35 AM 41.0 °F - 37.4 °F 87% 30.27 in - Calm Calm - N/A   Unknown
12:55 AM 39.2 °F - 35.6 °F 87% 30.27 in - Calm Calm - N/A   Unknown
1:15 AM 39.2 °F - 37.4 °F 93% 30.27 in - Calm Calm - N/A   Unknown
1:35 AM 39.2 °F - 35.6 °F 87% 30.26 in - Calm Calm - N/A   Unknown
1:55 AM 39.2 °F - 35.6 °F 87% 30.26 in - Calm Calm - N/A   Unknown
2:15 AM 39.2 °F - 35.6 °F 87% 30.26 in - Calm Calm - N/A   Unknown
2:35 AM 37.4 °F - 35.6 °F 93% 30.25 in - Calm Calm - N/A   Mostly Cloudy
2:55 AM 39.2 °F - 35.6 °F 87% 30.25 in - Calm Calm - N/A   Overcast
3:15 AM 37.4 °F - 37.4 °F 100% 30.24 in - Calm Calm - N/A   Overcast
3:35 AM 39.2 °F - 35.6 °F 87% 30.24 in - Calm Calm - N/A   Overcast
3:55 AM 39.2 °F - 35.6 °F 87% 30.24 in - Calm Calm - N/A   Mostly Cloudy
4:15 AM 39.2 °F - 35.6 °F 87% 30.24 in - Calm Calm - N/A   Mostly Cloudy
4:35 AM 37.4 °F - 35.6 °F 93% 30.23 in - Calm Calm - N/A   Mostly Cloudy
4:55 AM 37.4 °F - 33.8 °F 87% 30.23 in - Calm Calm - N/A   Unknown
5:35 AM 35.6 °F - 32.0 °F 87% 30.24 in - Calm Calm - N/A   Unknown
5:55 AM 35.6 °F - 33.8 °F 93% 30.24 in - Calm Calm - N/A   Unknown
6:15 AM 37.4 °F - 35.6 °F 93% 30.24 in - Calm Calm - N/A   Mostly Cloudy
6:35 AM 37.4 °F - 35.6 °F 93% 30.24 in - Calm Calm - N/A   Overcast
6:55 AM 39.2 °F - 37.4 °F 93% 30.24 in - Calm Calm - N/A   Overcast
7:15 AM 39.2 °F - 37.4 °F 93% 30.24 in - Calm Calm - N/A   Overcast
7:35 AM 41.0 °F - 39.2 °F 93% 30.24 in - Calm Calm - N/A   Overcast
7:55 AM 42.8 °F - 41.0 °F 93% 30.24 in - Calm Calm - N/A   Overcast
8:15 AM 44.6 °F - 42.8 °F 93% 30.24 in - Calm Calm - N/A   Overcast
8:35 AM 44.6 °F - 41.0 °F 87% 30.24 in - Calm Calm - N/A   Overcast
8:55 AM 46.4 °F - 44.6 °F 93% 30.24 in - Calm Calm - N/A   Overcast
9:16 AM 48.2 °F - 44.6 °F 87% 30.24 in - Calm Calm - N/A   Overcast
9:35 AM 48.2 °F - 46.4 °F 93% 30.24 in - Calm Calm - N/A   Overcast
9:55 AM 51.8 °F - 48.2 °F 88% 30.25 in - SSE 3.5 mph - N/A   Overcast
10:15 AM 53.6 °F - 51.8 °F 94% 30.25 in - South 4.6 mph - N/A   Overcast
10:35 AM 55.4 °F - 51.8 °F 88% 30.24 in - SSW 4.6 mph - N/A   Mostly Cloudy
10:55 AM 60.8 °F - 48.2 °F 63% 30.23 in - SSW 3.5 mph - N/A   Partly Cloudy
11:15 AM 62.6 °F - 48.2 °F 59% 30.23 in - SSW 4.6 mph - N/A   Clear
11:35 AM 62.6 °F - 46.4 °F 55% 30.22 in - South 6.9 mph - N/A   Clear
11:55 AM 64.4 °F - 44.6 °F 49% 30.22 in - Calm Calm - N/A   Clear
12:15 PM 66.2 °F - 46.4 °F 49% 30.22 in - South 3.5 mph - N/A   Clear
12:35 PM 64.4 °F - 46.4 °F 52% 30.21 in - WSW 4.6 mph - N/A   Clear
12:55 PM 66.2 °F - 46.4 °F 49% 30.20 in - Calm Calm - N/A   Partly Cloudy
1:15 PM 64.4 °F - 48.2 °F 56% 30.19 in - ENE 5.8 mph - N/A   Partly Cloudy
1:35 PM 64.4 °F - 46.4 °F 52% 30.19 in - East 5.8 mph - N/A   Clear
1:55 PM 64.4 °F - 46.4 °F 52% 30.19 in - ESE 6.9 mph - N/A   Partly Cloudy
2:15 PM 64.4 °F - 44.6 °F 49% 30.19 in - ESE 6.9 mph - N/A   Clear
2:35 PM 64.4 °F - 44.6 °F 49% 30.18 in - SE 4.6 mph - N/A   Clear
2:55 PM 64.4 °F - 44.6 °F 49% 30.18 in - ESE 6.9 mph - N/A   Clear
3:15 PM 64.4 °F - 44.6 °F 49% 30.17 in - East 6.9 mph - N/A   Clear
3:35 PM 62.6 °F - 44.6 °F 52% 30.16 in - SE 5.8 mph - N/A   Clear
3:55 PM 62.6 °F - 42.8 °F 48% 30.16 in - ESE 5.8 mph - N/A   Clear
4:15 PM 62.6 °F - 42.8 °F 48% 30.15 in - SE 5.8 mph - N/A   Partly Cloudy
4:35 PM 60.8 °F - 42.8 °F 52% 30.15 in - ESE 5.8 mph - N/A   Clear
4:55 PM 60.8 °F - 39.2 °F 45% 30.15 in - SE 4.6 mph - N/A   Clear
5:15 PM 59.0 °F - 41.0 °F 51% 30.15 in - SE 5.8 mph - N/A   Clear
5:35 PM 57.2 °F - 42.8 °F 59% 30.15 in - SE 5.8 mph - N/A   Clear
5:55 PM 57.2 °F - 46.4 °F 67% 30.15 in - Calm Calm - N/A   Clear
6:15 PM 55.4 °F - 46.4 °F 72% 30.15 in - Calm Calm - N/A   Clear
6:35 PM 51.8 °F - 46.4 °F 82% 30.15 in - Calm Calm - N/A   Clear
6:55 PM 48.2 °F - 44.6 °F 87% 30.15 in - Calm Calm - N/A   Unknown
7:15 PM 46.4 °F - 42.8 °F 87% 30.15 in - Calm Calm - N/A   Unknown
7:35 PM 46.4 °F - 42.8 °F 87% 30.15 in - Calm Calm - N/A   Unknown
7:55 PM 44.6 °F - 39.2 °F 81% 30.15 in - Calm Calm - N/A   Clear
8:15 PM 42.8 °F - 39.2 °F 87% 30.15 in - Calm Calm - N/A   Unknown
8:35 PM 41.0 °F - 37.4 °F 87% 30.15 in - Calm Calm - N/A   Unknown
8:55 PM 41.0 °F - 37.4 °F 87% 30.15 in - Calm Calm - N/A   Unknown
9:15 PM 39.2 °F - 35.6 °F 87% 30.15 in - Calm Calm - N/A   Unknown
9:35 PM 39.2 °F 37.0 °F 33.8 °F 81% 30.15 in - SW 3.5 mph - N/A   Clear
9:55 PM 39.2 °F - 35.6 °F 87% 30.15 in - Calm Calm - N/A   Unknown
10:15 PM 37.4 °F - 33.8 °F 87% 30.14 in - Calm Calm - N/A   Unknown
10:35 PM 37.4 °F 34.9 °F 33.8 °F 87% 30.14 in - WSW 3.5 mph - N/A   Unknown
10:55 PM 37.4 °F 34.9 °F 37.4 °F 100% 30.14 in - WSW 3.5 mph - N/A   Unknown
11:15 PM 37.4 °F - 33.8 °F 87% 30.14 in - Calm Calm - N/A   Unknown
11:35 PM 37.4 °F - 33.8 °F 87% 30.14 in - Calm Calm - N/A   Mostly Cloudy
11:55 PM 39.2 °F 37.0 °F 35.6 °F 87% 30.14 in - WSW 3.5 mph - N/A   Overcast